Date Hour Ending, MW ,,,,,,,,,,,,,,,,,
 03/01/2018 1:00,350,,,,,,,,,,,,,,,,,
 03/01/2018 2:00,311,,,,,,,,,,,,,,,,,
 03/01/2018 3:00,303,,,,,,,,,,,,,,,,,
 03/01/2018 4:00,265,,,,,,,,,,,,,,,,,
 03/01/2018 5:00,232,,,,,,,,,,,,,,,,,
 03/01/2018 6:00,233,,,,,,,,,,,,,,,,,
 03/01/2018 7:00,316,,,,,,,,,,,,,,,,,
 03/01/2018 8:00,414,,,,,,,,,,,,,,,,,
 03/01/2018 9:00,428,,,,,,,,,,,,,,,,,
 03/01/2018 10:00,396,,,,,,,,,,,,,,,,,
 03/01/2018 11:00,417,,,,,,,,,,,,,,,,,
 03/01/2018 12:00,422,,,,,,,,,,,,,,,,,
 03/01/2018 13:00,429,,,,,,,,,,,,,,,,,
 03/01/2018 14:00,354,,,,,,,,,,,,,,,,,
 03/01/2018 15:00,345,,,,,,,,,,,,,,,,,
 03/01/2018 16:00,369,,,,,,,,,,,,,,,,,
 03/01/2018 17:00,322,,,,,,,,,,,,,,,,,
 03/01/2018 18:00,301,,,,,,,,,,,,,,,,,
 03/01/2018 19:00,314,,,,,,,,,,,,,,,,,
 03/01/2018 20:00,248,,,,,,,,,,,,,,,,,
 03/01/2018 21:00,193,,,,,,,,,,,,,,,,,
 03/01/2018 22:00,182,,,,,,,,,,,,,,,,,
 03/01/2018 23:00,194,,,,,,,,,,,,,,,,,
 03/02/2018 0:00,182,,,,,,,,,,,,,,,,,
 03/02/2018 1:00,151,,,,,,,,,,,,,,,,,
 03/02/2018 2:00,129,,,,,,,,,,,,,,,,,
 03/02/2018 3:00,84,,,,,,,,,,,,,,,,,
 03/02/2018 4:00,76,,,,,,,,,,,,,,,,,
 03/02/2018 5:00,64,,,,,,,,,,,,,,,,,
 03/02/2018 6:00,76,,,,,,,,,,,,,,,,,
 03/02/2018 7:00,168,,,,,,,,,,,,,,,,,
 03/02/2018 8:00,238,,,,,,,,,,,,,,,,,
 03/02/2018 9:00,265,,,,,,,,,,,,,,,,,
 03/02/2018 10:00,270,,,,,,,,,,,,,,,,,
 03/02/2018 11:00,255,,,,,,,,,,,,,,,,,
 03/02/2018 12:00,271,,,,,,,,,,,,,,,,,
 03/02/2018 13:00,261,,,,,,,,,,,,,,,,,
 03/02/2018 14:00,194,,,,,,,,,,,,,,,,,
 03/02/2018 15:00,160,,,,,,,,,,,,,,,,,
 03/02/2018 16:00,165,,,,,,,,,,,,,,,,,
 03/02/2018 17:00,216,,,,,,,,,,,,,,,,,
 03/02/2018 18:00,254,,,,,,,,,,,,,,,,,
 03/02/2018 19:00,254,,,,,,,,,,,,,,,,,
 03/02/2018 20:00,265,,,,,,,,,,,,,,,,,
 03/02/2018 21:00,262,,,,,,,,,,,,,,,,,
 03/02/2018 22:00,265,,,,,,,,,,,,,,,,,
 03/02/2018 23:00,198,,,,,,,,,,,,,,,,,
 03/03/2018 0:00,182,,,,,,,,,,,,,,,,,
 03/03/2018 1:00,156,,,,,,,,,,,,,,,,,
 03/03/2018 2:00,151,,,,,,,,,,,,,,,,,
 03/03/2018 3:00,131,,,,,,,,,,,,,,,,,
 03/03/2018 4:00,139,,,,,,,,,,,,,,,,,
 03/03/2018 5:00,151,,,,,,,,,,,,,,,,,
 03/03/2018 6:00,150,,,,,,,,,,,,,,,,,
 03/03/2018 7:00,146,,,,,,,,,,,,,,,,,
 03/03/2018 8:00,124,,,,,,,,,,,,,,,,,
 03/03/2018 9:00,179,,,,,,,,,,,,,,,,,
 03/03/2018 10:00,251,,,,,,,,,,,,,,,,,
 03/03/2018 11:00,235,,,,,,,,,,,,,,,,,
 03/03/2018 12:00,246,,,,,,,,,,,,,,,,,
 03/03/2018 13:00,213,,,,,,,,,,,,,,,,,
 03/03/2018 14:00,172,,,,,,,,,,,,,,,,,
 03/03/2018 15:00,157,,,,,,,,,,,,,,,,,
 03/03/2018 16:00,153,,,,,,,,,,,,,,,,,
 03/03/2018 17:00,146,,,,,,,,,,,,,,,,,
 03/03/2018 18:00,173,,,,,,,,,,,,,,,,,
 03/03/2018 19:00,197,,,,,,,,,,,,,,,,,
 03/03/2018 20:00,210,,,,,,,,,,,,,,,,,
 03/03/2018 21:00,206,,,,,,,,,,,,,,,,,
 03/03/2018 22:00,163,,,,,,,,,,,,,,,,,
 03/03/2018 23:00,137,,,,,,,,,,,,,,,,,
 03/04/2018 0:00,122,,,,,,,,,,,,,,,,,
 03/04/2018 1:00,104,,,,,,,,,,,,,,,,,
 03/04/2018 2:00,101,,,,,,,,,,,,,,,,,
 03/04/2018 3:00,101,,,,,,,,,,,,,,,,,
 03/04/2018 4:00,111,,,,,,,,,,,,,,,,,
 03/04/2018 5:00,100,,,,,,,,,,,,,,,,,
 03/04/2018 6:00,93,,,,,,,,,,,,,,,,,
 03/04/2018 7:00,121,,,,,,,,,,,,,,,,,
 03/04/2018 8:00,188,,,,,,,,,,,,,,,,,
 03/04/2018 9:00,226,,,,,,,,,,,,,,,,,
 03/04/2018 10:00,233,,,,,,,,,,,,,,,,,
 03/04/2018 11:00,227,,,,,,,,,,,,,,,,,
 03/04/2018 12:00,238,,,,,,,,,,,,,,,,,
 03/04/2018 13:00,259,,,,,,,,,,,,,,,,,
 03/04/2018 14:00,271,,,,,,,,,,,,,,,,,
 03/04/2018 15:00,261,,,,,,,,,,,,,,,,,
 03/04/2018 16:00,310,,,,,,,,,,,,,,,,,
 03/04/2018 17:00,316,,,,,,,,,,,,,,,,,
 03/04/2018 18:00,334,,,,,,,,,,,,,,,,,
 03/04/2018 19:00,348,,,,,,,,,,,,,,,,,
 03/04/2018 20:00,365,,,,,,,,,,,,,,,,,
 03/04/2018 21:00,295,,,,,,,,,,,,,,,,,
 03/04/2018 22:00,281,,,,,,,,,,,,,,,,,
 03/04/2018 23:00,242,,,,,,,,,,,,,,,,,
 03/05/2018 0:00,165,,,,,,,,,,,,,,,,,
 03/05/2018 1:00,120,,,,,,,,,,,,,,,,,
 03/05/2018 2:00,103,,,,,,,,,,,,,,,,,
 03/05/2018 3:00,104,,,,,,,,,,,,,,,,,
 03/05/2018 4:00,90,,,,,,,,,,,,,,,,,
 03/05/2018 5:00,80,,,,,,,,,,,,,,,,,
 03/05/2018 6:00,130,,,,,,,,,,,,,,,,,
 03/05/2018 7:00,246,,,,,,,,,,,,,,,,,
 03/05/2018 8:00,300,,,,,,,,,,,,,,,,,
 03/05/2018 9:00,325,,,,,,,,,,,,,,,,,
 03/05/2018 10:00,313,,,,,,,,,,,,,,,,,
 03/05/2018 11:00,281,,,,,,,,,,,,,,,,,
 03/05/2018 12:00,276,,,,,,,,,,,,,,,,,
 03/05/2018 13:00,197,,,,,,,,,,,,,,,,,
 03/05/2018 14:00,152,,,,,,,,,,,,,,,,,
 03/05/2018 15:00,142,,,,,,,,,,,,,,,,,
 03/05/2018 16:00,136,,,,,,,,,,,,,,,,,
 03/05/2018 17:00,150,,,,,,,,,,,,,,,,,
 03/05/2018 18:00,223,,,,,,,,,,,,,,,,,
 03/05/2018 19:00,243,,,,,,,,,,,,,,,,,
 03/05/2018 20:00,266,,,,,,,,,,,,,,,,,
 03/05/2018 21:00,268,,,,,,,,,,,,,,,,,
 03/05/2018 22:00,227,,,,,,,,,,,,,,,,,
 03/05/2018 23:00,197,,,,,,,,,,,,,,,,,
 03/06/2018 0:00,176,,,,,,,,,,,,,,,,,
 03/06/2018 1:00,167,,,,,,,,,,,,,,,,,
 03/06/2018 2:00,118,,,,,,,,,,,,,,,,,
 03/06/2018 3:00,107,,,,,,,,,,,,,,,,,
 03/06/2018 4:00,130,,,,,,,,,,,,,,,,,
 03/06/2018 5:00,164,,,,,,,,,,,,,,,,,
 03/06/2018 6:00,218,,,,,,,,,,,,,,,,,
 03/06/2018 7:00,277,,,,,,,,,,,,,,,,,
 03/06/2018 8:00,295,,,,,,,,,,,,,,,,,
 03/06/2018 9:00,293,,,,,,,,,,,,,,,,,
 03/06/2018 10:00,296,,,,,,,,,,,,,,,,,
 03/06/2018 11:00,368,,,,,,,,,,,,,,,,,
 03/06/2018 12:00,385,,,,,,,,,,,,,,,,,
 03/06/2018 13:00,383,,,,,,,,,,,,,,,,,
 03/06/2018 14:00,338,,,,,,,,,,,,,,,,,
 03/06/2018 15:00,313,,,,,,,,,,,,,,,,,
 03/06/2018 16:00,285,,,,,,,,,,,,,,,,,
 03/06/2018 17:00,291,,,,,,,,,,,,,,,,,
 03/06/2018 18:00,331,,,,,,,,,,,,,,,,,
 03/06/2018 19:00,381,,,,,,,,,,,,,,,,,
 03/06/2018 20:00,403,,,,,,,,,,,,,,,,,
 03/06/2018 21:00,387,,,,,,,,,,,,,,,,,
 03/06/2018 22:00,281,,,,,,,,,,,,,,,,,
 03/06/2018 23:00,216,,,,,,,,,,,,,,,,,
 03/07/2018 0:00,230,,,,,,,,,,,,,,,,,
 03/07/2018 1:00,184,,,,,,,,,,,,,,,,,
 03/07/2018 2:00,210,,,,,,,,,,,,,,,,,
 03/07/2018 3:00,231,,,,,,,,,,,,,,,,,
 03/07/2018 4:00,243,,,,,,,,,,,,,,,,,
 03/07/2018 5:00,240,,,,,,,,,,,,,,,,,
 03/07/2018 6:00,295,,,,,,,,,,,,,,,,,
 03/07/2018 7:00,461,,,,,,,,,,,,,,,,,
 03/07/2018 8:00,515,,,,,,,,,,,,,,,,,
 03/07/2018 9:00,549,,,,,,,,,,,,,,,,,
 03/07/2018 10:00,526,,,,,,,,,,,,,,,,,
 03/07/2018 11:00,489,,,,,,,,,,,,,,,,,
 03/07/2018 12:00,533,,,,,,,,,,,,,,,,,
 03/07/2018 13:00,482,,,,,,,,,,,,,,,,,
 03/07/2018 14:00,453,,,,,,,,,,,,,,,,,
 03/07/2018 15:00,457,,,,,,,,,,,,,,,,,
 03/07/2018 16:00,490,,,,,,,,,,,,,,,,,
 03/07/2018 17:00,499,,,,,,,,,,,,,,,,,
 03/07/2018 18:00,551,,,,,,,,,,,,,,,,,
 03/07/2018 19:00,593,,,,,,,,,,,,,,,,,
 03/07/2018 20:00,565,,,,,,,,,,,,,,,,,
 03/07/2018 21:00,481,,,,,,,,,,,,,,,,,
 03/07/2018 22:00,396,,,,,,,,,,,,,,,,,
 03/07/2018 23:00,329,,,,,,,,,,,,,,,,,
 03/08/2018 0:00,281,,,,,,,,,,,,,,,,,
 03/08/2018 1:00,231,,,,,,,,,,,,,,,,,
 03/08/2018 2:00,237,,,,,,,,,,,,,,,,,
 03/08/2018 3:00,243,,,,,,,,,,,,,,,,,
 03/08/2018 4:00,284,,,,,,,,,,,,,,,,,
 03/08/2018 5:00,302,,,,,,,,,,,,,,,,,
 03/08/2018 6:00,339,,,,,,,,,,,,,,,,,
 03/08/2018 7:00,451,,,,,,,,,,,,,,,,,
 03/08/2018 8:00,492,,,,,,,,,,,,,,,,,
 03/08/2018 9:00,499,,,,,,,,,,,,,,,,,
 03/08/2018 10:00,460,,,,,,,,,,,,,,,,,
 03/08/2018 11:00,463,,,,,,,,,,,,,,,,,
 03/08/2018 12:00,501,,,,,,,,,,,,,,,,,
 03/08/2018 13:00,507,,,,,,,,,,,,,,,,,
 03/08/2018 14:00,524,,,,,,,,,,,,,,,,,
 03/08/2018 15:00,483,,,,,,,,,,,,,,,,,
 03/08/2018 16:00,471,,,,,,,,,,,,,,,,,
 03/08/2018 17:00,471,,,,,,,,,,,,,,,,,
 03/08/2018 18:00,477,,,,,,,,,,,,,,,,,
 03/08/2018 19:00,502,,,,,,,,,,,,,,,,,
 03/08/2018 20:00,470,,,,,,,,,,,,,,,,,
 03/08/2018 21:00,382,,,,,,,,,,,,,,,,,
 03/08/2018 22:00,317,,,,,,,,,,,,,,,,,
 03/08/2018 23:00,298,,,,,,,,,,,,,,,,,
 03/09/2018 0:00,294,,,,,,,,,,,,,,,,,
 03/09/2018 1:00,345,,,,,,,,,,,,,,,,,
 03/09/2018 2:00,401,,,,,,,,,,,,,,,,,
 03/09/2018 3:00,418,,,,,,,,,,,,,,,,,
 03/09/2018 4:00,423,,,,,,,,,,,,,,,,,
 03/09/2018 5:00,446,,,,,,,,,,,,,,,,,
 03/09/2018 6:00,459,,,,,,,,,,,,,,,,,
 03/09/2018 7:00,617,,,,,,,,,,,,,,,,,
 03/09/2018 8:00,629,,,,,,,,,,,,,,,,,
 03/09/2018 9:00,671,,,,,,,,,,,,,,,,,
 03/09/2018 10:00,657,,,,,,,,,,,,,,,,,
 03/09/2018 11:00,646,,,,,,,,,,,,,,,,,
 03/09/2018 12:00,633,,,,,,,,,,,,,,,,,
 03/09/2018 13:00,550,,,,,,,,,,,,,,,,,
 03/09/2018 14:00,522,,,,,,,,,,,,,,,,,
 03/09/2018 15:00,494,,,,,,,,,,,,,,,,,
 03/09/2018 16:00,458,,,,,,,,,,,,,,,,,
 03/09/2018 17:00,434,,,,,,,,,,,,,,,,,
 03/09/2018 18:00,408,,,,,,,,,,,,,,,,,
 03/09/2018 19:00,447,,,,,,,,,,,,,,,,,
 03/09/2018 20:00,401,,,,,,,,,,,,,,,,,
 03/09/2018 21:00,346,,,,,,,,,,,,,,,,,
 03/09/2018 22:00,384,,,,,,,,,,,,,,,,,
 03/09/2018 23:00,367,,,,,,,,,,,,,,,,,
 03/10/2018 0:00,343,,,,,,,,,,,,,,,,,
 03/10/2018 1:00,299,,,,,,,,,,,,,,,,,
 03/10/2018 2:00,254,,,,,,,,,,,,,,,,,
 03/10/2018 3:00,228,,,,,,,,,,,,,,,,,
 03/10/2018 4:00,223,,,,,,,,,,,,,,,,,
 03/10/2018 5:00,238,,,,,,,,,,,,,,,,,
 03/10/2018 6:00,269,,,,,,,,,,,,,,,,,
 03/10/2018 7:00,330,,,,,,,,,,,,,,,,,
 03/10/2018 8:00,381,,,,,,,,,,,,,,,,,
 03/10/2018 9:00,429,,,,,,,,,,,,,,,,,
 03/10/2018 10:00,441,,,,,,,,,,,,,,,,,
 03/10/2018 11:00,454,,,,,,,,,,,,,,,,,
 03/10/2018 12:00,463,,,,,,,,,,,,,,,,,
 03/10/2018 13:00,478,,,,,,,,,,,,,,,,,
 03/10/2018 14:00,473,,,,,,,,,,,,,,,,,
 03/10/2018 15:00,434,,,,,,,,,,,,,,,,,
 03/10/2018 16:00,442,,,,,,,,,,,,,,,,,
 03/10/2018 17:00,515,,,,,,,,,,,,,,,,,
 03/10/2018 18:00,585,,,,,,,,,,,,,,,,,
 03/10/2018 19:00,605,,,,,,,,,,,,,,,,,
 03/10/2018 20:00,623,,,,,,,,,,,,,,,,,
 03/10/2018 21:00,600,,,,,,,,,,,,,,,,,
 03/10/2018 22:00,539,,,,,,,,,,,,,,,,,
 03/10/2018 23:00,453,,,,,,,,,,,,,,,,,
 03/11/2018 0:00,449,,,,,,,,,,,,,,,,,
 03/11/2018 1:00,467,,,,,,,,,,,,,,,,,
 03/11/2018 2:00,455,,,,,,,,,,,,,,,,,
 03/11/2018 3:00,448,,,,,,,,,,,,,,,,,
 03/11/2018 4:00,415,,,,,,,,,,,,,,,,,
 03/11/2018 5:00,422,,,,,,,,,,,,,,,,,
 03/11/2018 6:00,482,,,,,,,,,,,,,,,,,
 03/11/2018 7:00,486,,,,,,,,,,,,,,,,,
 03/11/2018 8:00,507,,,,,,,,,,,,,,,,,
 03/11/2018 9:00,513,,,,,,,,,,,,,,,,,
 03/11/2018 10:00,539,,,,,,,,,,,,,,,,,
 03/11/2018 11:00,533,,,,,,,,,,,,,,,,,
 03/11/2018 12:00,519,,,,,,,,,,,,,,,,,
 03/11/2018 13:00,463,,,,,,,,,,,,,,,,,
 03/11/2018 14:00,424,,,,,,,,,,,,,,,,,
 03/11/2018 15:00,414,,,,,,,,,,,,,,,,,
 03/11/2018 16:00,429,,,,,,,,,,,,,,,,,
 03/11/2018 17:00,469,,,,,,,,,,,,,,,,,
 03/11/2018 18:00,500,,,,,,,,,,,,,,,,,
 03/11/2018 19:00,534,,,,,,,,,,,,,,,,,
 03/11/2018 20:00,561,,,,,,,,,,,,,,,,,
 03/11/2018 21:00,463,,,,,,,,,,,,,,,,,
 03/11/2018 22:00,347,,,,,,,,,,,,,,,,,
 03/11/2018 23:00,319,,,,,,,,,,,,,,,,,
 03/12/2018 0:00,288,,,,,,,,,,,,,,,,,
 03/12/2018 1:00,298,,,,,,,,,,,,,,,,,
 03/12/2018 2:00,281,,,,,,,,,,,,,,,,,
 03/12/2018 3:00,279,,,,,,,,,,,,,,,,,
 03/12/2018 4:00,300,,,,,,,,,,,,,,,,,
 03/12/2018 5:00,328,,,,,,,,,,,,,,,,,
 03/12/2018 6:00,428,,,,,,,,,,,,,,,,,
 03/12/2018 7:00,456,,,,,,,,,,,,,,,,,
 03/12/2018 8:00,469,,,,,,,,,,,,,,,,,
 03/12/2018 9:00,507,,,,,,,,,,,,,,,,,
 03/12/2018 10:00,509,,,,,,,,,,,,,,,,,
 03/12/2018 11:00,506,,,,,,,,,,,,,,,,,
 03/12/2018 12:00,486,,,,,,,,,,,,,,,,,
 03/12/2018 13:00,422,,,,,,,,,,,,,,,,,
 03/12/2018 14:00,405,,,,,,,,,,,,,,,,,
 03/12/2018 15:00,432,,,,,,,,,,,,,,,,,
 03/12/2018 16:00,469,,,,,,,,,,,,,,,,,
 03/12/2018 17:00,524,,,,,,,,,,,,,,,,,
 03/12/2018 18:00,599,,,,,,,,,,,,,,,,,
 03/12/2018 19:00,627,,,,,,,,,,,,,,,,,
 03/12/2018 20:00,622,,,,,,,,,,,,,,,,,
 03/12/2018 21:00,568,,,,,,,,,,,,,,,,,
 03/12/2018 22:00,501,,,,,,,,,,,,,,,,,
 03/12/2018 23:00,411,,,,,,,,,,,,,,,,,
 03/13/2018 0:00,419,,,,,,,,,,,,,,,,,
 03/13/2018 1:00,407,,,,,,,,,,,,,,,,,
 03/13/2018 2:00,383,,,,,,,,,,,,,,,,,
 03/13/2018 3:00,350,,,,,,,,,,,,,,,,,
 03/13/2018 4:00,354,,,,,,,,,,,,,,,,,
 03/13/2018 5:00,371,,,,,,,,,,,,,,,,,
 03/13/2018 6:00,453,,,,,,,,,,,,,,,,,
 03/13/2018 7:00,500,,,,,,,,,,,,,,,,,
 03/13/2018 8:00,524,,,,,,,,,,,,,,,,,
 03/13/2018 9:00,489,,,,,,,,,,,,,,,,,
 03/13/2018 10:00,446,,,,,,,,,,,,,,,,,
 03/13/2018 11:00,429,,,,,,,,,,,,,,,,,
 03/13/2018 12:00,441,,,,,,,,,,,,,,,,,
 03/13/2018 13:00,450,,,,,,,,,,,,,,,,,
 03/13/2018 14:00,432,,,,,,,,,,,,,,,,,
 03/13/2018 15:00,418,,,,,,,,,,,,,,,,,
 03/13/2018 16:00,442,,,,,,,,,,,,,,,,,
 03/13/2018 17:00,466,,,,,,,,,,,,,,,,,
 03/13/2018 18:00,412,,,,,,,,,,,,,,,,,
 03/13/2018 19:00,378,,,,,,,,,,,,,,,,,
 03/13/2018 20:00,426,,,,,,,,,,,,,,,,,
 03/13/2018 21:00,363,,,,,,,,,,,,,,,,,
 03/13/2018 22:00,240,,,,,,,,,,,,,,,,,
 03/13/2018 23:00,189,,,,,,,,,,,,,,,,,
 03/14/2018 0:00,198,,,,,,,,,,,,,,,,,
 03/14/2018 1:00,224,,,,,,,,,,,,,,,,,
 03/14/2018 2:00,208,,,,,,,,,,,,,,,,,
 03/14/2018 3:00,182,,,,,,,,,,,,,,,,,
 03/14/2018 4:00,177,,,,,,,,,,,,,,,,,
 03/14/2018 5:00,195,,,,,,,,,,,,,,,,,
 03/14/2018 6:00,228,,,,,,,,,,,,,,,,,
 03/14/2018 7:00,282,,,,,,,,,,,,,,,,,
 03/14/2018 8:00,359,,,,,,,,,,,,,,,,,
 03/14/2018 9:00,344,,,,,,,,,,,,,,,,,
 03/14/2018 10:00,368,,,,,,,,,,,,,,,,,
 03/14/2018 11:00,402,,,,,,,,,,,,,,,,,
 03/14/2018 12:00,395,,,,,,,,,,,,,,,,,
 03/14/2018 13:00,415,,,,,,,,,,,,,,,,,
 03/14/2018 14:00,409,,,,,,,,,,,,,,,,,
 03/14/2018 15:00,444,,,,,,,,,,,,,,,,,
 03/14/2018 16:00,473,,,,,,,,,,,,,,,,,
 03/14/2018 17:00,439,,,,,,,,,,,,,,,,,
 03/14/2018 18:00,406,,,,,,,,,,,,,,,,,
 03/14/2018 19:00,412,,,,,,,,,,,,,,,,,
 03/14/2018 20:00,389,,,,,,,,,,,,,,,,,
 03/14/2018 21:00,351,,,,,,,,,,,,,,,,,
 03/14/2018 22:00,320,,,,,,,,,,,,,,,,,
 03/14/2018 23:00,308,,,,,,,,,,,,,,,,,
 03/15/2018 0:00,323,,,,,,,,,,,,,,,,,
 03/15/2018 1:00,374,,,,,,,,,,,,,,,,,
 03/15/2018 2:00,354,,,,,,,,,,,,,,,,,
 03/15/2018 3:00,360,,,,,,,,,,,,,,,,,
 03/15/2018 4:00,349,,,,,,,,,,,,,,,,,
 03/15/2018 5:00,381,,,,,,,,,,,,,,,,,
 03/15/2018 6:00,392,,,,,,,,,,,,,,,,,
 03/15/2018 7:00,424,,,,,,,,,,,,,,,,,
 03/15/2018 8:00,430,,,,,,,,,,,,,,,,,
 03/15/2018 9:00,403,,,,,,,,,,,,,,,,,
 03/15/2018 10:00,362,,,,,,,,,,,,,,,,,
 03/15/2018 11:00,329,,,,,,,,,,,,,,,,,
 03/15/2018 12:00,325,,,,,,,,,,,,,,,,,
 03/15/2018 13:00,311,,,,,,,,,,,,,,,,,
 03/15/2018 14:00,274,,,,,,,,,,,,,,,,,
 03/15/2018 15:00,228,,,,,,,,,,,,,,,,,
 03/15/2018 16:00,247,,,,,,,,,,,,,,,,,
 03/15/2018 17:00,275,,,,,,,,,,,,,,,,,
 03/15/2018 18:00,292,,,,,,,,,,,,,,,,,
 03/15/2018 19:00,328,,,,,,,,,,,,,,,,,
 03/15/2018 20:00,377,,,,,,,,,,,,,,,,,
 03/15/2018 21:00,365,,,,,,,,,,,,,,,,,
 03/15/2018 22:00,318,,,,,,,,,,,,,,,,,
 03/15/2018 23:00,320,,,,,,,,,,,,,,,,,
 03/16/2018 0:00,313,,,,,,,,,,,,,,,,,
 03/16/2018 1:00,276,,,,,,,,,,,,,,,,,
 03/16/2018 2:00,274,,,,,,,,,,,,,,,,,
 03/16/2018 3:00,270,,,,,,,,,,,,,,,,,
 03/16/2018 4:00,289,,,,,,,,,,,,,,,,,
 03/16/2018 5:00,323,,,,,,,,,,,,,,,,,
 03/16/2018 6:00,414,,,,,,,,,,,,,,,,,
 03/16/2018 7:00,517,,,,,,,,,,,,,,,,,
 03/16/2018 8:00,577,,,,,,,,,,,,,,,,,
 03/16/2018 9:00,572,,,,,,,,,,,,,,,,,
 03/16/2018 10:00,544,,,,,,,,,,,,,,,,,
 03/16/2018 11:00,569,,,,,,,,,,,,,,,,,
 03/16/2018 12:00,513,,,,,,,,,,,,,,,,,
 03/16/2018 13:00,466,,,,,,,,,,,,,,,,,
 03/16/2018 14:00,402,,,,,,,,,,,,,,,,,
 03/16/2018 15:00,390,,,,,,,,,,,,,,,,,
 03/16/2018 16:00,393,,,,,,,,,,,,,,,,,
 03/16/2018 17:00,433,,,,,,,,,,,,,,,,,
 03/16/2018 18:00,464,,,,,,,,,,,,,,,,,
 03/16/2018 19:00,508,,,,,,,,,,,,,,,,,
 03/16/2018 20:00,511,,,,,,,,,,,,,,,,,
 03/16/2018 21:00,462,,,,,,,,,,,,,,,,,
 03/16/2018 22:00,426,,,,,,,,,,,,,,,,,
 03/16/2018 23:00,406,,,,,,,,,,,,,,,,,
 03/17/2018 0:00,397,,,,,,,,,,,,,,,,,
 03/17/2018 1:00,383,,,,,,,,,,,,,,,,,
 03/17/2018 2:00,356,,,,,,,,,,,,,,,,,
 03/17/2018 3:00,349,,,,,,,,,,,,,,,,,
 03/17/2018 4:00,358,,,,,,,,,,,,,,,,,
 03/17/2018 5:00,377,,,,,,,,,,,,,,,,,
 03/17/2018 6:00,378,,,,,,,,,,,,,,,,,
 03/17/2018 7:00,418,,,,,,,,,,,,,,,,,
 03/17/2018 8:00,480,,,,,,,,,,,,,,,,,
 03/17/2018 9:00,525,,,,,,,,,,,,,,,,,
 03/17/2018 10:00,581,,,,,,,,,,,,,,,,,
 03/17/2018 11:00,573,,,,,,,,,,,,,,,,,
 03/17/2018 12:00,571,,,,,,,,,,,,,,,,,
 03/17/2018 13:00,543,,,,,,,,,,,,,,,,,
 03/17/2018 14:00,499,,,,,,,,,,,,,,,,,
 03/17/2018 15:00,463,,,,,,,,,,,,,,,,,
 03/17/2018 16:00,509,,,,,,,,,,,,,,,,,
 03/17/2018 17:00,533,,,,,,,,,,,,,,,,,
 03/17/2018 18:00,560,,,,,,,,,,,,,,,,,
 03/17/2018 19:00,590,,,,,,,,,,,,,,,,,
 03/17/2018 20:00,600,,,,,,,,,,,,,,,,,
 03/17/2018 21:00,530,,,,,,,,,,,,,,,,,
 03/17/2018 22:00,461,,,,,,,,,,,,,,,,,
 03/17/2018 23:00,419,,,,,,,,,,,,,,,,,
 03/18/2018 0:00,425,,,,,,,,,,,,,,,,,
 03/18/2018 1:00,462,,,,,,,,,,,,,,,,,
 03/18/2018 2:00,470,,,,,,,,,,,,,,,,,
 03/18/2018 3:00,445,,,,,,,,,,,,,,,,,
 03/18/2018 4:00,455,,,,,,,,,,,,,,,,,
 03/18/2018 5:00,453,,,,,,,,,,,,,,,,,
 03/18/2018 6:00,411,,,,,,,,,,,,,,,,,
 03/18/2018 7:00,397,,,,,,,,,,,,,,,,,
 03/18/2018 8:00,420,,,,,,,,,,,,,,,,,
 03/18/2018 9:00,479,,,,,,,,,,,,,,,,,
 03/18/2018 10:00,568,,,,,,,,,,,,,,,,,
 03/18/2018 11:00,620,,,,,,,,,,,,,,,,,
 03/18/2018 12:00,607,,,,,,,,,,,,,,,,,
 03/18/2018 13:00,539,,,,,,,,,,,,,,,,,
 03/18/2018 14:00,477,,,,,,,,,,,,,,,,,
 03/18/2018 15:00,406,,,,,,,,,,,,,,,,,
 03/18/2018 16:00,420,,,,,,,,,,,,,,,,,
 03/18/2018 17:00,433,,,,,,,,,,,,,,,,,
 03/18/2018 18:00,438,,,,,,,,,,,,,,,,,
 03/18/2018 19:00,532,,,,,,,,,,,,,,,,,
 03/18/2018 20:00,596,,,,,,,,,,,,,,,,,
 03/18/2018 21:00,555,,,,,,,,,,,,,,,,,
 03/18/2018 22:00,460,,,,,,,,,,,,,,,,,
 03/18/2018 23:00,364,,,,,,,,,,,,,,,,,
 03/19/2018 0:00,319,,,,,,,,,,,,,,,,,
 03/19/2018 1:00,341,,,,,,,,,,,,,,,,,
 03/19/2018 2:00,355,,,,,,,,,,,,,,,,,
 03/19/2018 3:00,360,,,,,,,,,,,,,,,,,
 03/19/2018 4:00,388,,,,,,,,,,,,,,,,,
 03/19/2018 5:00,422,,,,,,,,,,,,,,,,,
 03/19/2018 6:00,494,,,,,,,,,,,,,,,,,
 03/19/2018 7:00,572,,,,,,,,,,,,,,,,,
 03/19/2018 8:00,557,,,,,,,,,,,,,,,,,
 03/19/2018 9:00,538,,,,,,,,,,,,,,,,,
 03/19/2018 10:00,549,,,,,,,,,,,,,,,,,
 03/19/2018 11:00,546,,,,,,,,,,,,,,,,,
 03/19/2018 12:00,563,,,,,,,,,,,,,,,,,
 03/19/2018 13:00,564,,,,,,,,,,,,,,,,,
 03/19/2018 14:00,559,,,,,,,,,,,,,,,,,
 03/19/2018 15:00,509,,,,,,,,,,,,,,,,,
 03/19/2018 16:00,477,,,,,,,,,,,,,,,,,
 03/19/2018 17:00,489,,,,,,,,,,,,,,,,,
 03/19/2018 18:00,481,,,,,,,,,,,,,,,,,
 03/19/2018 19:00,550,,,,,,,,,,,,,,,,,
 03/19/2018 20:00,616,,,,,,,,,,,,,,,,,
 03/19/2018 21:00,598,,,,,,,,,,,,,,,,,
 03/19/2018 22:00,482,,,,,,,,,,,,,,,,,
 03/19/2018 23:00,372,,,,,,,,,,,,,,,,,
 03/20/2018 0:00,383,,,,,,,,,,,,,,,,,
 03/20/2018 1:00,382,,,,,,,,,,,,,,,,,
 03/20/2018 2:00,297,,,,,,,,,,,,,,,,,
 03/20/2018 3:00,274,,,,,,,,,,,,,,,,,
 03/20/2018 4:00,306,,,,,,,,,,,,,,,,,
 03/20/2018 5:00,387,,,,,,,,,,,,,,,,,
 03/20/2018 6:00,446,,,,,,,,,,,,,,,,,
 03/20/2018 7:00,550,,,,,,,,,,,,,,,,,
 03/20/2018 8:00,574,,,,,,,,,,,,,,,,,
 03/20/2018 9:00,570,,,,,,,,,,,,,,,,,
 03/20/2018 10:00,564,,,,,,,,,,,,,,,,,
 03/20/2018 11:00,567,,,,,,,,,,,,,,,,,
 03/20/2018 12:00,558,,,,,,,,,,,,,,,,,
 03/20/2018 13:00,528,,,,,,,,,,,,,,,,,
 03/20/2018 14:00,445,,,,,,,,,,,,,,,,,
 03/20/2018 15:00,431,,,,,,,,,,,,,,,,,
 03/20/2018 16:00,471,,,,,,,,,,,,,,,,,
 03/20/2018 17:00,449,,,,,,,,,,,,,,,,,
 03/20/2018 18:00,461,,,,,,,,,,,,,,,,,
 03/20/2018 19:00,530,,,,,,,,,,,,,,,,,
 03/20/2018 20:00,594,,,,,,,,,,,,,,,,,
 03/20/2018 21:00,564,,,,,,,,,,,,,,,,,
 03/20/2018 22:00,501,,,,,,,,,,,,,,,,,
 03/20/2018 23:00,413,,,,,,,,,,,,,,,,,
 03/21/2018 0:00,431,,,,,,,,,,,,,,,,,
 03/21/2018 1:00,470,,,,,,,,,,,,,,,,,
 03/21/2018 2:00,455,,,,,,,,,,,,,,,,,
 03/21/2018 3:00,447,,,,,,,,,,,,,,,,,
 03/21/2018 4:00,486,,,,,,,,,,,,,,,,,
 03/21/2018 5:00,556,,,,,,,,,,,,,,,,,
 03/21/2018 6:00,625,,,,,,,,,,,,,,,,,
 03/21/2018 7:00,686,,,,,,,,,,,,,,,,,
 03/21/2018 8:00,663,,,,,,,,,,,,,,,,,
 03/21/2018 9:00,631,,,,,,,,,,,,,,,,,
 03/21/2018 10:00,616,,,,,,,,,,,,,,,,,
 03/21/2018 11:00,562,,,,,,,,,,,,,,,,,
 03/21/2018 12:00,462,,,,,,,,,,,,,,,,,
 03/21/2018 13:00,400,,,,,,,,,,,,,,,,,
 03/21/2018 14:00,376,,,,,,,,,,,,,,,,,
 03/21/2018 15:00,371,,,,,,,,,,,,,,,,,
 03/21/2018 16:00,368,,,,,,,,,,,,,,,,,
 03/21/2018 17:00,408,,,,,,,,,,,,,,,,,
 03/21/2018 18:00,400,,,,,,,,,,,,,,,,,
 03/21/2018 19:00,420,,,,,,,,,,,,,,,,,
 03/21/2018 20:00,396,,,,,,,,,,,,,,,,,
 03/21/2018 21:00,335,,,,,,,,,,,,,,,,,
 03/21/2018 22:00,283,,,,,,,,,,,,,,,,,
 03/21/2018 23:00,218,,,,,,,,,,,,,,,,,
 03/22/2018 0:00,228,,,,,,,,,,,,,,,,,
 03/22/2018 1:00,219,,,,,,,,,,,,,,,,,
 03/22/2018 2:00,220,,,,,,,,,,,,,,,,,
 03/22/2018 3:00,255,,,,,,,,,,,,,,,,,
 03/22/2018 4:00,240,,,,,,,,,,,,,,,,,
 03/22/2018 5:00,254,,,,,,,,,,,,,,,,,
 03/22/2018 6:00,317,,,,,,,,,,,,,,,,,
 03/22/2018 7:00,358,,,,,,,,,,,,,,,,,
 03/22/2018 8:00,383,,,,,,,,,,,,,,,,,
 03/22/2018 9:00,401,,,,,,,,,,,,,,,,,
 03/22/2018 10:00,404,,,,,,,,,,,,,,,,,
 03/22/2018 11:00,425,,,,,,,,,,,,,,,,,
 03/22/2018 12:00,464,,,,,,,,,,,,,,,,,
 03/22/2018 13:00,417,,,,,,,,,,,,,,,,,
 03/22/2018 14:00,357,,,,,,,,,,,,,,,,,
 03/22/2018 15:00,357,,,,,,,,,,,,,,,,,
 03/22/2018 16:00,359,,,,,,,,,,,,,,,,,
 03/22/2018 17:00,367,,,,,,,,,,,,,,,,,
 03/22/2018 18:00,385,,,,,,,,,,,,,,,,,
 03/22/2018 19:00,416,,,,,,,,,,,,,,,,,
 03/22/2018 20:00,426,,,,,,,,,,,,,,,,,
 03/22/2018 21:00,381,,,,,,,,,,,,,,,,,
 03/22/2018 22:00,332,,,,,,,,,,,,,,,,,
 03/22/2018 23:00,309,,,,,,,,,,,,,,,,,
 03/23/2018 0:00,330,,,,,,,,,,,,,,,,,
 03/23/2018 1:00,336,,,,,,,,,,,,,,,,,
 03/23/2018 2:00,325,,,,,,,,,,,,,,,,,
 03/23/2018 3:00,308,,,,,,,,,,,,,,,,,
 03/23/2018 4:00,352,,,,,,,,,,,,,,,,,
 03/23/2018 5:00,352,,,,,,,,,,,,,,,,,
 03/23/2018 6:00,411,,,,,,,,,,,,,,,,,
 03/23/2018 7:00,492,,,,,,,,,,,,,,,,,
 03/23/2018 8:00,516,,,,,,,,,,,,,,,,,
 03/23/2018 9:00,522,,,,,,,,,,,,,,,,,
 03/23/2018 10:00,538,,,,,,,,,,,,,,,,,
 03/23/2018 11:00,564,,,,,,,,,,,,,,,,,
 03/23/2018 12:00,534,,,,,,,,,,,,,,,,,
 03/23/2018 13:00,498,,,,,,,,,,,,,,,,,
 03/23/2018 14:00,489,,,,,,,,,,,,,,,,,
 03/23/2018 15:00,484,,,,,,,,,,,,,,,,,
 03/23/2018 16:00,503,,,,,,,,,,,,,,,,,
 03/23/2018 17:00,551,,,,,,,,,,,,,,,,,
 03/23/2018 18:00,566,,,,,,,,,,,,,,,,,
 03/23/2018 19:00,614,,,,,,,,,,,,,,,,,
 03/23/2018 20:00,634,,,,,,,,,,,,,,,,,
 03/23/2018 21:00,594,,,,,,,,,,,,,,,,,
 03/23/2018 22:00,527,,,,,,,,,,,,,,,,,
 03/23/2018 23:00,502,,,,,,,,,,,,,,,,,
 03/24/2018 0:00,506,,,,,,,,,,,,,,,,,
 03/24/2018 1:00,423,,,,,,,,,,,,,,,,,
 03/24/2018 2:00,397,,,,,,,,,,,,,,,,,
 03/24/2018 3:00,369,,,,,,,,,,,,,,,,,
 03/24/2018 4:00,351,,,,,,,,,,,,,,,,,
 03/24/2018 5:00,350,,,,,,,,,,,,,,,,,
 03/24/2018 6:00,382,,,,,,,,,,,,,,,,,
 03/24/2018 7:00,416,,,,,,,,,,,,,,,,,
 03/24/2018 8:00,491,,,,,,,,,,,,,,,,,
 03/24/2018 9:00,518,,,,,,,,,,,,,,,,,
 03/24/2018 10:00,524,,,,,,,,,,,,,,,,,
 03/24/2018 11:00,468,,,,,,,,,,,,,,,,,
 03/24/2018 12:00,407,,,,,,,,,,,,,,,,,
 03/24/2018 13:00,372,,,,,,,,,,,,,,,,,
 03/24/2018 14:00,339,,,,,,,,,,,,,,,,,
 03/24/2018 15:00,327,,,,,,,,,,,,,,,,,
 03/24/2018 16:00,350,,,,,,,,,,,,,,,,,
 03/24/2018 17:00,377,,,,,,,,,,,,,,,,,
 03/24/2018 18:00,380,,,,,,,,,,,,,,,,,
 03/24/2018 19:00,408,,,,,,,,,,,,,,,,,
 03/24/2018 20:00,431,,,,,,,,,,,,,,,,,
 03/24/2018 21:00,396,,,,,,,,,,,,,,,,,
 03/24/2018 22:00,260,,,,,,,,,,,,,,,,,
 03/24/2018 23:00,223,,,,,,,,,,,,,,,,,
 03/25/2018 0:00,227,,,,,,,,,,,,,,,,,
 03/25/2018 1:00,211,,,,,,,,,,,,,,,,,
 03/25/2018 2:00,210,,,,,,,,,,,,,,,,,
 03/25/2018 3:00,193,,,,,,,,,,,,,,,,,
 03/25/2018 4:00,186,,,,,,,,,,,,,,,,,
 03/25/2018 5:00,248,,,,,,,,,,,,,,,,,
 03/25/2018 6:00,278,,,,,,,,,,,,,,,,,
 03/25/2018 7:00,322,,,,,,,,,,,,,,,,,
 03/25/2018 8:00,373,,,,,,,,,,,,,,,,,
 03/25/2018 9:00,415,,,,,,,,,,,,,,,,,
 03/25/2018 10:00,440,,,,,,,,,,,,,,,,,
 03/25/2018 11:00,437,,,,,,,,,,,,,,,,,
 03/25/2018 12:00,418,,,,,,,,,,,,,,,,,
 03/25/2018 13:00,395,,,,,,,,,,,,,,,,,
 03/25/2018 14:00,343,,,,,,,,,,,,,,,,,
 03/25/2018 15:00,336,,,,,,,,,,,,,,,,,
 03/25/2018 16:00,363,,,,,,,,,,,,,,,,,
 03/25/2018 17:00,400,,,,,,,,,,,,,,,,,
 03/25/2018 18:00,401,,,,,,,,,,,,,,,,,
 03/25/2018 19:00,436,,,,,,,,,,,,,,,,,
 03/25/2018 20:00,450,,,,,,,,,,,,,,,,,
 03/25/2018 21:00,424,,,,,,,,,,,,,,,,,
 03/25/2018 22:00,359,,,,,,,,,,,,,,,,,
 03/25/2018 23:00,351,,,,,,,,,,,,,,,,,
 03/26/2018 0:00,385,,,,,,,,,,,,,,,,,
 03/26/2018 1:00,396,,,,,,,,,,,,,,,,,
 03/26/2018 2:00,408,,,,,,,,,,,,,,,,,
 03/26/2018 3:00,395,,,,,,,,,,,,,,,,,
 03/26/2018 4:00,426,,,,,,,,,,,,,,,,,
 03/26/2018 5:00,443,,,,,,,,,,,,,,,,,